AF1E Weather Reports


time (UTC)temp
F
wind
direction
speed
knots
gust
knots
rain 1hr
in
rain 24hr
in
rain mn
in
humidity
%
barometer
mb
20260906071537 71 0.0 0.0 0.00 0.12 0.00 94 1009.7
20260906070538 71 0.0 0.0 0.00 0.12 0.00 94 1009.6
20260906065517 71 0.0 0.0 0.00 0.12 0.00 94 1009.7
20260906064517 71 0.0 0.0 0.00 0.12 0.00 94 1010.1
20260906063518 71 0.0 0.0 0.00 0.12 0.00 94 1010.4
20260906062537 72 0.0 0.0 0.00 0.12 0.00 94 1010.5
20260906061518 72 0.0 0.9 0.00 0.12 0.00 95 1010.5
20260906060517 71 0.0 0.0 0.00 0.12 0.00 94 1010.6
20260906055517 71 0.0 0.0 0.00 0.12 0.00 94 1010.6
20260906054517 71 0.0 0.9 0.00 0.12 0.00 95 1010.7
20260906053517 71 0.0 0.9 0.00 0.12 0.00 95 1010.7
20260906052517 72 0.0 0.0 0.00 0.12 0.00 95 1010.8
20260906051518 71 0.0 0.0 0.00 0.12 0.00 95 1011.0
20260906050517 71 0.0 0.0 0.00 0.12 0.00 95 1011.0
20260906045517 71 0.0 0.0 0.00 0.12 0.00 95 1011.0
20260906044516 71 0.0 0.0 0.00 0.12 0.00 94 1011.1
20260906043517 72 0.0 0.0 0.00 0.12 0.00 94 1011.2
20260906042517 72 0.0 0.0 0.00 0.12 0.00 94 1011.2
20260906041517 72 0.0 0.0 0.00 0.12 0.00 94 1011.1
20260906040538 72 0.0 0.0 0.00 0.12 0.00 94 1011.4
20260906035517 72 0.0 0.0 0.00 0.12 0.12 94 1011.5
20260906034517 72 0.0 0.0 0.00 0.12 0.12 93 1011.4
20260906033517 72 0.0 0.0 0.00 0.12 0.12 93 1011.3
20260906032517 72 0.0 0.0 0.00 0.12 0.12 93 1011.4
20260906031537 73 0.0 0.0 0.00 0.12 0.12 93 1011.4
20260906030516 73 0.0 0.0 0.00 0.12 0.12 93 1011.3
20260906025517 73 0.0 0.0 0.00 0.12 0.12 92 1011.1
20260906024517 73 0.0 0.0 0.00 0.12 0.12 92 1011.0
20260906023517 73 0.0 0.0 0.00 0.12 0.12 92 1011.1
20260906022558 73 0.0 0.9 0.00 0.12 0.12 92 1010.9
20260906021517 73 0.0 0.0 0.00 0.12 0.12 93 1011.0
20260906020517 74 0.0 0.0 0.00 0.12 0.12 92 1010.9
20260906015538 74 0.0 0.0 0.00 0.12 0.12 92 1010.9
20260906014517 74 0.0 0.0 0.00 0.12 0.12 92 1010.9
20260906013516 74 0.0 0.0 0.00 0.12 0.12 91 1010.8
20260906012516 74 0.0 0.0 0.00 0.12 0.12 90 1010.7
20260906011518 75 0.0 0.0 0.00 0.12 0.12 88 1010.7
20260906010517 75 0.0 0.0 0.00 0.12 0.12 88 1010.6
20260906005517 75 0.0 0.0 0.00 0.12 0.12 87 1010.6
20260906004518 76 0.0 0.0 0.00 0.12 0.12 87 1010.6
20260906003516 76 0.0 0.0 0.00 0.12 0.12 86 1010.6
20260906002516 76 0.0 0.0 0.00 0.12 0.12 85 1010.4
20260906001517 77 0.0 0.0 0.00 0.12 0.12 83 1010.1
20260906000517 77 0.0 0.0 0.00 0.12 0.12 81 1010.0
20260905235516 78 0.0 0.0 0.00 0.12 0.12 80 1009.8
20260905234618 78 0.0 0.0 0.00 0.12 0.12 80 1009.8
20260905233537 79 0.0 0.0 0.00 0.12 0.12 80 1009.9
20260905232516 79 0.0 0.0 0.00 0.12 0.12 80 1009.8
20260905231516 80 0.0 0.0 0.00 0.12 0.12 80 1009.7
20260905230518 80 0.0 0.0 0.00 0.12 0.12 79 1009.6
20260905225516 80 0.0 0.0 0.00 0.12 0.12 79 1009.6
20260905224516 81 0.0 0.0 0.00 0.12 0.12 80 1009.5
20260905223516 81 0.0 0.0 0.00 0.12 0.12 80 1009.5
20260905222518 81 0.0 0.0 0.00 0.12 0.12 79 1009.7
20260905221516 81 0.0 0.0 0.00 0.12 0.12 78 1009.6
20260905220516 81 0.0 0.0 0.00 0.12 0.12 76 1009.6
20260905215516 81 0.0 0.0 0.00 0.12 0.12 78 1009.8
20260905214516 81 0.0 0.0 0.00 0.12 0.12 79 1010.1
20260905213516 81 0.0 0.0 0.00 0.12 0.12 80 1010.3
20260905212516 80 0.0 0.0 0.00 0.12 0.12 80 1010.5
20260905211536 80 0.0 0.0 0.00 0.12 0.12 82 1010.4
20260905210538 79 0.0 0.0 0.00 0.12 0.12 83 1010.4
20260905205516 79 0.0 0.0 0.00 0.12 0.12 86 1010.4
20260905204516 78 0.0 0.0 0.00 0.12 0.12 89 1010.4
20260905203517 77 0.0 0.0 0.00 0.12 0.12 90 1010.7
20260905202516 76 0.0 0.0 0.00 0.12 0.12 90 1010.5
20260905201516 76 0.0 0.0 0.00 0.12 0.12 90 1010.4
20260905200516 75 0.0 0.0 0.00 0.12 0.12 89 1010.6
20260905195516 75 0.0 0.0 0.00 0.12 0.12 88 1010.8
20260905194516 75 0.0 0.0 0.00 0.12 0.12 86 1011.1
20260905193536 75 0.0 0.0 0.00 0.12 0.12 87 1011.1
20260905192516 75 0.0 0.9 0.00 0.12 0.12 85 1011.2
20260905191517 76 0.0 0.0 0.00 0.12 0.12 87 1010.4
20260905190516 76 0.0 0.9 0.00 0.12 0.12 85 1010.2
20260905185517 76 0.0 0.0 0.05 0.12 0.12 92 1010.2
20260905184516 76 0.0 0.0 0.12 0.12 0.12 92 1010.1
20260905183516 75 0.0 0.0 0.12 0.12 0.12 91 1010.4
20260905182516 76 0.0 0.9 0.12 0.12 0.12 88 1010.7
20260905181516 76 0.0 0.9 0.12 0.12 0.12 84 1011.2
20260905180516 79 0.0 1.7 0.12 0.12 0.12 78 1011.7
20260905175517 87 23 1.7 7.0 0.07 0.07 0.07 60 1012.4
20260905174536 95 0 1.7 7.8 0.00 0.00 0.00 55 1011.6
20260905173537 95 0.0 2.6 0.00 0.00 0.00 55 1011.3
20260905172516 95 0.0 1.7 0.00 0.00 0.00 53 1011.2
20260905171537 95 0.0 0.9 0.00 0.00 0.00 53 1011.4
20260905170516 95 0.0 1.7 0.00 0.00 0.00 56 1011.7
20260905165536 95 0 0.9 2.6 0.00 0.00 0.00 57 1011.7
20260905164516 96 0.0 1.7 0.00 0.00 0.00 54 1011.8
20260905163516 96 0.0 3.5 0.00 0.00 0.00 54 1011.8
20260905162516 94 0.0 1.7 0.00 0.00 0.00 57 1011.9
20260905161516 94 0.0 1.7 0.00 0.00 0.00 56 1012.1
20260905160516 94 0.0 1.7 0.00 0.00 0.00 60 1012.3
20260905155517 94 0.0 1.7 0.00 0.00 0.00 60 1012.3
20260905154516 93 0.0 0.9 0.00 0.00 0.00 64 1012.3
20260905153517 92 0.0 0.9 0.00 0.00 0.00 66 1012.2
20260905152516 91 338 0.9 1.7 0.00 0.00 0.00 64 1012.2
20260905151515 91 0.0 1.7 0.00 0.00 0.00 66 1012.2
20260905150536 90 0.0 0.9 0.00 0.00 0.00 67 1012.2
20260905145516 89 0.0 0.9 0.00 0.00 0.00 69 1012.3
20260905144557 89 135 0.9 1.7 0.00 0.00 0.00 71 1012.4
20260905143516 88 0.0 0.9 0.00 0.00 0.00 73 1012.5
20260905142533 88 0.0 1.7 0.00 0.00 0.00 71 1012.4
20260905141516 86 0.0 0.9 0.00 0.00 0.00 76 1012.3
20260905140537 85 0.0 0.9 0.00 0.00 0.00 79 1012.3
20260905135518 83 0.0 0.9 0.00 0.00 0.00 82 1012.4
20260905134517 82 0.0 0.9 0.00 0.00 0.00 83 1012.5
20260905133519 81 0.0 0.9 0.00 0.00 0.00 86 1012.5
20260905132517 80 0.0 0.9 0.00 0.00 0.00 87 1012.5
20260905131518 79 0.0 0.9 0.00 0.00 0.00 90 1012.5
20260905130518 78 0.0 0.9 0.00 0.00 0.00 93 1012.6
20260905125518 77 0.0 0.9 0.00 0.00 0.00 94 1012.6
20260905124518 76 0.0 0.0 0.00 0.00 0.00 95 1012.8
20260905123518 75 0.0 0.0 0.00 0.00 0.00 96 1012.8
20260905122538 74 0.0 0.0 0.00 0.00 0.00 96 1012.6
20260905121517 73 0.0 0.0 0.00 0.00 0.00 96 1012.6
20260905120517 73 0.0 0.0 0.00 0.00 0.00 96 1012.5
20260905115522 72 0.0 0.0 0.00 0.00 0.00 96 1012.3
20260905114517 72 0.0 0.0 0.00 0.00 0.00 96 1012.2
20260905113518 71 0.0 0.0 0.00 0.00 0.00 96 1012.3
20260905112519 71 0.0 0.0 0.00 0.00 0.00 96 1012.2
20260905111519 71 0.0 0.0 0.00 0.00 0.00 95 1012.1
20260905110517 71 0.0 0.0 0.00 0.00 0.00 95 1011.9
20260905105517 71 0.0 0.0 0.00 0.00 0.00 95 1011.8
20260905104517 71 0.0 0.0 0.00 0.00 0.00 95 1011.7
20260905103517 71 0.0 0.0 0.00 0.00 0.00 95 1011.7
20260905102517 72 0.0 0.0 0.00 0.00 0.00 95 1011.6
20260905101537 72 0.0 0.0 0.00 0.00 0.00 95 1011.5
20260905100517 72 0.0 0.0 0.00 0.00 0.00 95 1011.4
20260905095539 72 0.0 0.0 0.00 0.00 0.00 95 1011.5
20260905094517 72 0.0 0.0 0.00 0.00 0.00 95 1011.4
20260905093518 72 0.0 0.0 0.00 0.00 0.00 95 1011.4
20260905092519 72 0.0 0.0 0.00 0.00 0.00 95 1011.4
20260905091517 72 0.0 0.0 0.00 0.00 0.00 94 1011.4
20260905090517 72 0.0 0.0 0.00 0.00 0.00 95 1011.5
20260905085517 73 0.0 0.0 0.00 0.00 0.00 94 1011.6
20260905084517 72 0.0 0.0 0.00 0.00 0.00 94 1011.5
20260905083558 72 0.0 0.0 0.00 0.00 0.00 94 1011.6
20260905082517 73 0.0 0.0 0.00 0.00 0.00 93 1011.6
20260905081517 73 0.0 0.0 0.00 0.00 0.00 93 1011.7
20260905080517 73 0.0 0.0 0.00 0.00 0.00 93 1011.9
20260905075517 73 0.0 0.0 0.00 0.00 0.00 93 1012.1
20260905074517 73 0.0 0.0 0.00 0.00 0.00 92 1012.1
20260905073517 74 0.0 0.0 0.00 0.00 0.00 92 1012.1
20260905072518 74 0.0 0.0 0.00 0.00 0.00 92 1012.1